Abingdon, Iowa
Current Conditions -  °F | °C
As of 9:15 PM on Friday 31 Oct 2014 (Local Time) from KFFL Reporting Station
Clear Clear  
Wind Chill: 21°   Ceiling: Unl
Heat Index: 28°   Visibility: NA
Dew Point: 19°   Wind: 7mph
Humidity: 69%   Direction: 330°NNW
Pressure: 30.44"   Gusts: NA
Location:  40.9883°N, 92.1215°W
Report Text: KFFL 010215Z AUTO 33006KT CLR M02/M07 A3044 RMK AO2
Loading
Personal Weather Stations






























Interactive Weather Map
Tropical Storm Tracking
New forecast layout! Learn more

10-Day Weather Forecast

Advertisements
Track Severe Weather on mobile